RYR1738 EGPE-EGFF

Flight info

Callsign RYR1738
Flight time N/A
Altitude 33000
Route GUSSI DCT NESDI N560 ERSON DCT ADZOP/N0432F330 DCT EGTOC DCT NOKIN N862 KARNO/N0431F320 DCT ALHUP DCT LUCSA N862 WEVBE
Aircraft B738/M-SDE2E3FGHIRWXY/LB1

Departure

Time 2026-05-06 18:16
Airport Inverness Airport (EGPE)

Arrival

Time N/A
Airport Cardiff International Airport (EGFF)
Time Latitude Longitude Altitude Speed Heading
2026-05-06 17:54 57.53814 -4.06270 32 ft 0 kts 273°
2026-05-06 18:10 57.53814 -4.06269 32 ft 0 kts 273°
2026-05-06 18:11 57.53813 -4.06243 32 ft 2 kts 265°
2026-05-06 18:11 57.53817 -4.06217 32 ft 2 kts 239°
2026-05-06 18:11 57.53827 -4.06196 32 ft 2 kts 218°
2026-05-06 18:11 57.53840 -4.06182 32 ft 2 kts 197°
2026-05-06 18:12 57.53855 -4.06179 32 ft 2 kts 180°
2026-05-06 18:12 57.53869 -4.06177 32 ft 2 kts 187°
2026-05-06 18:12 57.53878 -4.06175 32 ft 0 kts 185°
2026-05-06 18:14 57.53871 -4.06176 32 ft 2 kts 185°
2026-05-06 18:14 57.53838 -4.06181 32 ft 6 kts 185°
2026-05-06 18:15 57.53783 -4.06174 32 ft 9 kts 143°
2026-05-06 18:15 57.53739 -4.06051 32 ft 13 kts 122°
2026-05-06 18:15 57.53724 -4.05895 32 ft 13 kts 50°
2026-05-06 18:15 57.53824 -4.05681 32 ft 50 kts 49°
2026-05-06 18:16 57.54236 -4.04787 32 ft 130 kts 49°
2026-05-06 18:16 57.54931 -4.03290 468 ft 159 kts 49°
2026-05-06 18:16 57.55611 -4.01795 1367 ft 160 kts 59°
2026-05-06 18:16 57.55783 -3.99781 1972 ft 165 kts 108°
2026-05-06 18:17 57.55111 -3.98013 2411 ft 178 kts 137°
2026-05-06 18:17 57.54034 -3.96718 2867 ft 193 kts 156°
2026-05-06 18:17 57.52679 -3.96272 3267 ft 213 kts 183°
2026-05-06 18:17 57.51239 -3.97177 3771 ft 230 kts 211°
2026-05-06 18:18 57.50124 -3.99387 4313 ft 246 kts 242°
2026-05-06 18:18 57.49679 -4.02532 4879 ft 261 kts 261°
2026-05-06 18:18 57.49246 -4.05767 5621 ft 262 kts 240°
2026-05-06 18:18 57.48006 -4.08089 6475 ft 258 kts 207°
2026-05-06 18:19 57.46253 -4.08687 7225 ft 264 kts 176°
2026-05-06 18:19 57.44451 -4.08052 7951 ft 268 kts 171°
2026-05-06 18:19 57.42627 -4.07569 8704 ft 269 kts 179°
2026-05-06 18:19 57.40756 -4.07620 9460 ft 271 kts 187°
2026-05-06 18:20 57.38898 -4.08021 10197 ft 273 kts 190°
2026-05-06 18:20 57.36988 -4.08537 10587 ft 289 kts 191°
2026-05-06 18:20 57.34956 -4.09086 10991 ft 304 kts 190°
2026-05-06 18:20 57.32804 -4.09640 11382 ft 319 kts 190°
2026-05-06 18:21 57.30558 -4.10198 11957 ft 329 kts 190°
2026-05-06 18:21 57.28307 -4.10748 12674 ft 333 kts 190°
2026-05-06 18:21 57.26025 -4.11304 13423 ft 336 kts 190°
2026-05-06 18:21 57.23711 -4.11868 14161 ft 339 kts 191°
2026-05-06 18:22 57.21354 -4.12440 14834 ft 344 kts 190°
2026-05-06 18:22 57.18986 -4.13008 15538 ft 348 kts 191°
2026-05-06 18:22 57.16568 -4.13596 16283 ft 350 kts 191°
2026-05-06 18:22 57.14187 -4.14179 16980 ft 353 kts 191°
2026-05-06 18:23 57.11749 -4.14781 17553 ft 359 kts 191°
2026-05-06 18:23 57.09231 -4.15411 18155 ft 364 kts 191°
2026-05-06 18:23 57.06726 -4.16035 18756 ft 369 kts 191°
2026-05-06 18:23 57.04192 -4.16659 19409 ft 372 kts 192°
2026-05-06 18:24 57.01616 -4.17290 19975 ft 376 kts 192°
2026-05-06 18:24 56.99030 -4.17921 20596 ft 379 kts 192°
2026-05-06 18:24 56.96418 -4.18557 21181 ft 383 kts 192°
2026-05-06 18:24 56.93767 -4.19202 21762 ft 386 kts 192°
2026-05-06 18:25 56.91092 -4.19851 22266 ft 392 kts 192°
2026-05-06 18:25 56.88425 -4.20497 22830 ft 394 kts 193°
2026-05-06 18:25 56.85708 -4.21156 23345 ft 398 kts 193°
2026-05-06 18:25 56.82937 -4.21827 23824 ft 403 kts 193°
2026-05-06 18:26 56.80151 -4.22503 24325 ft 406 kts 193°
2026-05-06 18:26 56.77372 -4.23177 24795 ft 411 kts 193°
2026-05-06 18:26 56.74556 -4.23860 25248 ft 415 kts 193°
2026-05-06 18:26 56.71672 -4.24559 25737 ft 418 kts 193°
2026-05-06 18:27 56.68796 -4.25255 26112 ft 423 kts 193°
2026-05-06 18:27 56.65872 -4.25960 26603 ft 426 kts 193°
2026-05-06 18:27 56.62922 -4.26669 26958 ft 431 kts 193°
2026-05-06 18:27 56.59944 -4.27384 27419 ft 434 kts 193°
2026-05-06 18:28 56.56928 -4.28106 27814 ft 438 kts 193°
2026-05-06 18:28 56.53940 -4.28819 28341 ft 438 kts 193°
2026-05-06 18:28 56.50917 -4.29522 28939 ft 436 kts 192°
2026-05-06 18:28 56.47883 -4.30003 29375 ft 441 kts 187°
2026-05-06 18:29 56.44809 -4.29824 29779 ft 449 kts 178°
2026-05-06 18:29 56.41716 -4.28880 30266 ft 452 kts 172°
2026-05-06 18:29 56.38666 -4.27542 30730 ft 454 kts 169°
2026-05-06 18:29 56.35632 -4.26009 31133 ft 456 kts 167°
2026-05-06 18:30 56.32601 -4.24406 31529 ft 457 kts 167°
2026-05-06 18:30 56.29551 -4.22790 31936 ft 457 kts 167°
2026-05-06 18:30 56.26537 -4.21221 32365 ft 456 kts 167°
2026-05-06 18:30 56.23504 -4.19674 32709 ft 457 kts 168°
2026-05-06 18:31 56.20409 -4.18124 32946 ft 460 kts 168°
2026-05-06 18:31 56.17385 -4.16632 32966 ft 457 kts 168°
2026-05-06 18:31 56.11282 -4.13660 32970 ft 456 kts 168°
2026-05-06 18:32 56.05171 -4.10720 32974 ft 455 kts 168°
2026-05-06 18:32 55.99099 -4.07822 32974 ft 453 kts 168°
2026-05-06 18:33 55.93011 -4.04928 32978 ft 456 kts 168°
2026-05-06 18:33 55.86912 -4.02034 32979 ft 454 kts 168°
2026-05-06 18:34 55.80823 -3.99149 32984 ft 454 kts 167°